Location: Casone le Fosse
(44.6547°N, 12.1103°E)
Time: 12:11:56
(UTC+00:00)

Cosmos 1939 Rocket - Pass Details

Date: 29 October 2020
Orbit: 532 x 584 km, 97.4° (Epoch: 27 November)

Event Time Altitude Azimuth Distance (km) Brightness Sun altitude
Rises 16:54:02 0° 152° (SSE) 2,727 6.2 -9.4°
Reaches altitude 10° 16:56:13 10° 147° (SSE) 1,828 5.2 -9.8°
Maximum altitude 17:00:01 47° 73° (ENE) 729 3.0 -10.5°
Drops below altitude 10° 17:03:48 10° 359° (N) 1,816 5.4 -11.1°
Sets 17:05:57 0° 354° (N) 2,706 6.3 -11.5°
